Dewpoint
33 30 31 32 33 33 31 29 28 30 31 31 32 31 30 30 31 31 35 39 37 39 40 41 41 41 41 48 48 49 51 52 53 54 55 56 56 57 57 58 58 58 58 59 60 60 61 62 63 63 64 66 67 68 69 69 69 70 70 70 71 72 72 71 71 71 71 70 71 71 70 70 71 71 71 72 71 71 73 74 75 75 74 75 75 75
32 31 31 32 33 31 30 29 28 27 28 28 29 31 31 30 29 30 30 32 37 36 37 39 41 41 40 47 48 50 50 50 51 53 54 55 55 57 57 58 58 58 58 59 59 60 60 61 62 63 63 66 66 68 69 69 69 70 70 70 71 72 71 71 71 71 71 70 71 70 70 70 71 70 70 71 71 70 72 74 75 75 75 75 75 75
29 29 31 33 34 31 29 28 27 27 26 26 26 27 29 29 29 29 30 30 31 35 35 37 39 40 39 44 48 49 49 50 51 52 53 54 54 56 57 57 58 58 57 58 59 59 60 60 62 62 63 64 65 67 68 68 69 69 69 70 71 71 71 71 72 71 71 70 71 70 70 71 71 71 71 71 72 72 71 74 75 75 75 75 75 75
29 29 30 33 34 31 28 27 27 26 26 25 25 25 25 28 29 28 28 27 28 30 32 37 38 39 38 46 48 49 49 50 51 51 52 53 53 56 57 57 58 58 57 57 58 59 59 60 61 62 62 64 65 66 67 68 68 68 69 69 70 71 71 71 72 72 71 71 71 71 71 72 71 71 72 71 72 71 72 74 75 75 75 75 75 75
29 31 32 33 33 32 29 27 26 25 24 25 24 24 24 26 28 29 29 27 27 28 31 35 38 38 36 45 47 48 49 50 50 51 51 52 53 56 57 57 58 58 58 57 58 58 59 60 60 61 62 63 65 66 66 67 68 68 68 69 70 71 71 70 72 72 71 72 71 71 72 72 72 72 71 71 70 70 73 74 74 75 75 75 75 75
29 32 32 31 32 32 31 28 27 25 24 24 24 24 24 26 29 30 30 27 24 22 29 34 35 35 36 45 46 47 48 48 49 50 50 51 52 55 56 57 58 58 59 58 58 58 58 59 60 61 62 62 64 65 66 66 67 68 68 69 70 70 71 70 72 71 71 71 71 70 70 70 69 69 69 69 69 69 71 73 74 75 74 75 75 75
30 32 31 31 30 31 31 30 29 26 23 22 23 24 24 25 28 30 29 27 24 22 26 33 32 31 36 41 45 46 46 47 48 49 50 51 52 54 55 56 57 58 58 58 58 58 58 59 60 61 61 62 63 64 66 66 67 68 68 69 70 70 70 71 71 71 72 71 71 70 69 69 69 69 69 69 69 69 71 73 74 74 74 75 74 75
33 34 32 30 30 29 30 30 31 29 26 23 24 24 24 25 26 27 29 26 25 29 24 30 31 31 30 35 44 45 45 46 47 48 49 51 52 52 54 55 56 57 58 58 58 58 58 59 59 60 61 62 63 64 65 66 67 68 68 69 69 70 71 71 71 71 71 71 70 70 70 70 69 69 69 69 69 69 71 72 73 74 74 75 74 74
34 33 33 30 29 28 28 31 32 31 28 28 29 26 25 26 26 28 28 27 25 24 22 25 29 30 30 31 40 43 44 45 46 48 49 51 51 52 53 55 56 57 58 58 58 58 58 58 59 60 61 61 63 64 65 66 66 68 68 69 69 70 71 71 71 71 71 71 70 70 70 70 70 69 69 70 70 69 71 70 73 74 74 74 74 74
32 33 33 32 30 29 29 31 32 31 29 29 29 30 28 28 28 28 27 26 25 25 23 25 24 28 29 34 36 41 42 44 45 47 49 50 51 52 53 55 56 57 58 58 58 58 58 58 59 60 61 61 62 64 66 66 67 67 68 69 69 69 70 70 71 71 71 70 71 70 70 70 69 70 70 69 69 69 70 69 71 73 73 74 74 74
31 36 35 31 30 30 29 30 31 31 30 30 29 28 26 28 28 28 28 26 26 20 21 20 20 23 22 33 34 38 39 43 45 47 49 50 51 52 53 55 57 57 58 58 58 58 58 58 59 60 60 61 63 64 65 66 66 67 68 69 69 69 70 70 70 70 70 70 70 70 70 70 69 70 70 69 68 70 70 68 70 72 73 73 73 74
30 29 34 32 33 32 25 27 29 31 30 29 26 27 26 25 24 26 29 29 22 20 22 20 17 15 15 26 31 38 39 41 44 45 48 49 50 52 53 55 57 58 59 59 59 58 58 59 59 60 60 61 63 64 65 65 66 68 68 68 69 69 70 70 70 70 70 70 70 70 70 70 70 69 70 68 68 69 70 68 69 71 72 73 73 73
26 28 28 31 38 32 28 22 26 29 29 28 25 24 23 23 24 19 20 19 20 19 24 19 16 17 16 27 35 30 35 38 43 45 47 49 50 52 53 55 57 58 59 59 59 59 58 59 59 60 61 61 63 64 65 65 66 67 68 68 68 68 69 70 70 70 69 70 70 70 69 70 70 69 71 69 68 68 70 69 68 71 72 72 73 73
20 24 26 25 24 33 27 22 21 25 26 25 24 22 21 19 18 18 21 19 17 19 20 14 16 13 26 22 24 28 30 33 39 45 47 49 51 52 53 55 56 58 59 59 59 59 59 59 59 60 61 62 64 64 65 66 66 67 68 68 68 69 69 69 70 69 69 69 70 70 70 70 70 69 70 71 68 68 69 70 69 70 71 72 72 72
14 16 20 22 22 24 26 22 20 22 23 22 23 20 21 20 18 18 16 13 13 17 16 13 11 18 11 20 22 23 28 31 38 44 47 49 51 52 53 55 56 57 59 60 60 60 59 60 60 61 61 62 63 64 65 66 66 67 68 68 68 69 69 69 69 69 69 69 69 70 70 70 70 70 69 71 71 69 69 70 70 70 71 72 72 73
15 14 18 21 21 20 21 23 21 21 21 20 20 20 20 19 27 16 21 17 18 18 12 16 15 20 16 30 34 26 26 31 42 45 47 49 51 52 54 55 56 57 58 60 60 60 60 60 60 61 61 62 63 65 65 66 67 67 68 68 68 69 69 69 70 69 69 69 69 70 70 70 70 71 70 70 71 72 70 70 71 70 71 72 72 73
16 13 14 19 18 18 19 21 20 21 19 20 19 17 18 18 16 24 32 26 25 21 11 31 27 16 14 15 10 21 24 25 39 47 48 49 51 53 54 55 56 56 58 59 60 60 61 60 61 61 62 62 63 64 65 66 67 67 68 68 68 68 69 69 70 69 69 69 69 69 70 70 70 70 70 69 69 71 71 71 71 71 71 72 73 73
24 21 16 14 15 17 18 20 20 19 20 19 18 19 18 19 19 18 15 24 18 14 18 18 11 20 12 14 23 13 19 19 27 46 49 50 51 53 54 55 56 57 58 59 60 61 61 61 61 61 62 62 63 64 65 66 67 68 68 68 68 68 69 69 70 69 69 69 69 69 70 70 70 70 70 70 69 70 72 71 71 72 72 72 73 73
31 26 23 21 16 17 17 17 18 19 18 18 19 17 17 15 15 20 22 16 12 13 17 17 16 20 18 18 23 10 10 15 20 40 49 50 50 52 54 55 56 57 57 58 59 60 61 61 61 61 61 63 63 65 65 66 67 68 68 69 69 68 69 69 70 70 70 69 69 70 70 70 70 70 70 71 71 70 71 72 71 71 72 72 73 74
32 26 25 24 21 19 18 17 16 17 18 18 17 16 20 17 17 16 15 25 16 20 15 15 18 13 21 14 15 10 10 10 14 19 49 50 51 52 53 55 56 57 57 58 59 60 61 61 61 61 61 62 63 64 66 66 67 68 69 69 69 69 69 69 70 70 70 69 69 70 70 70 70 71 71 71 71 71 71 72 72 71 71 72 73 73
33 35 28 27 27 24 18 18 16 17 16 16 14 15 16 20 19 18 21 13 21 24 15 16 14 20 23 18 13 12 11 11 12 15 45 51 51 52 53 54 55 56 57 57 58 59 60 61 61 61 61 62 63 65 66 66 67 68 69 69 69 69 69 69 70 70 70 70 70 70 70 70 70 70 71 71 71 71 71 72 73 72 71 72 73 73
34 32 31 32 30 26 22 18 18 17 18 17 14 13 15 14 15 12 15 16 18 18 21 17 13 27 21 17 16 15 13 10 11 15 36 51 51 52 52 53 55 56 56 57 58 59 60 61 62 62 62 62 63 64 66 67 67 68 68 69 69 69 69 69 70 70 70 71 70 70 70 70 70 70 71 71 71 71 71 72 73 73 72 71 72 73
33 34 34 32 30 28 26 25 21 18 18 18 16 14 14 13 14 14 16 15 10 11 33 28 20 21 33 29 20 17 15 11 10 12 23 49 51 52 52 53 54 55 56 56 57 58 59 61 61 62 62 62 63 65 65 67 67 68 68 69 69 69 70 70 70 70 70 71 71 71 70 70 71 71 71 70 70 71 71 71 72 73 73 71 71 72
40 35 30 31 33 33 32 30 28 26 18 18 18 17 13 12 12 12 14 19 12 13 12 15 21 21 31 43 29 19 18 14 12 11 19 46 51 51 52 52 54 55 55 55 57 58 59 60 61 62 62 62 62 64 65 66 67 68 68 69 69 69 70 70 70 70 70 71 71 71 71 71 71 71 71 70 70 70 70 71 71 72 73 73 72 72
27 31 29 27 32 28 26 26 25 23 20 17 17 17 14 14 12 15 25 24 13 12 11 15 14 16 33 42 37 35 27 17 13 19 28 45 49 50 51 52 53 55 55 55 56 58 59 60 61 61 62 62 63 63 65 66 67 67 68 69 69 69 70 70 70 70 71 70 70 71 71 71 71 71 71 71 70 70 70 70 70 70 72 73 73 73
28 26 29 29 29 28 23 22 27 32 26 22 18 17 16 13 13 14 15 21 15 27 24 16 21 27 31 33 29 27 25 20 16 26 32 45 47 48 50 51 53 54 55 55 56 57 58 60 61 61 62 62 63 63 64 65 66 67 68 69 69 70 70 70 70 70 71 71 70 71 71 71 71 71 71 71 71 70 70 70 70 70 70 71 73 73
29 29 30 30 30 28 29 31 31 33 32 31 28 17 17 14 12 14 26 22 15 28 22 21 22 24 27 26 26 27 23 19 19 31 39 44 46 47 49 51 52 54 55 55 56 57 58 60 61 62 62 62 63 64 64 65 65 66 67 68 69 70 70 70 70 71 71 71 70 71 71 71 71 71 71 71 71 71 71 70 70 70 69 70 70 71
33 27 26 30 28 27 26 27 26 29 28 29 30 26 17 16 13 12 16 17 28 24 18 27 33 19 27 31 32 28 30 26 25 33 41 45 45 46 49 51 58 53 54 55 56 57 58 59 61 62 62 62 64 65 65 65 66 66 67 68 69 69 70 71 71 71 71 71 71 71 71 71 71 71 71 71 71 71 71 71 70 70 70 70 69 69
28 26 26 27 25 24 23 23 25 28 29 30 30 27 17 17 16 13 18 18 32 20 21 27 35 29 27 29 30 34 29 26 34 44 41 45 46 47 49 50 52 52 53 54 55 56 57 58 60 61 62 63 64 65 65 66 66 67 67 68 69 69 70 71 71 71 71 71 71 71 71 71 71 71 71 71 71 71 71 70 70 70 70 70 69 69
27 26 27 27 24 23 24 26 29 29 33 30 29 29 22 16 16 15 16 25 28 32 28 29 38 27 27 28 30 34 41 40 47 50 46 45 47 48 48 51 51 51 52 53 54 55 56 58 59 61 62 63 64 66 67 67 67 67 67 68 68 69 70 71 72 71 71 71 71 71 71 71 72 71 71 71 71 71 71 70 70 70 70 70 69 69
26 26 30 25 24 23 25 28 28 29 34 33 29 29 25 17 16 16 15 19 33 31 29 36 38 34 32 37 36 43 45 45 47 49 46 46 48 49 48 50 51 51 51 52 53 54 56 57 59 60 62 63 64 66 67 68 68 68 68 68 69 70 71 72 72 72 72 72 71 71 72 72 71 72 71 71 71 71 71 70 70 70 70 70 70 69
27 26 26 25 23 22 25 26 27 32 34 31 33 32 28 24 20 17 16 18 26 31 38 39 37 34 35 40 40 40 40 40 40 41 44 48 48 49 48 49 50 51 51 51 52 54 56 59 60 61 62 62 64 66 67 68 68 68 68 68 69 69 71 72 72 72 72 72 72 72 72 72 72 72 71 71 71 71 71 70 70 69 69 69 69 70
27 26 25 24 22 23 25 24 27 36 33 31 31 28 31 31 32 45 47 34 30 30 35 38 35 37 36 41 37 39 37 37 37 41 44 48 50 49 48 49 50 51 51 52 53 56 57 59 61 63 63 63 64 65 67 69 69 69 69 69 69 70 70 71 72 72 73 73 73 73 72 72 72 71 71 71 71 71 71 70 70 69 69 68 68 69
27 27 26 26 24 24 23 23 37 37 28 28 35 33 33 42 47 47 48 48 49 48 27 34 36 41 38 33 33 34 39 42 46 53 47 48 51 55 57 57 55 55 53 53 54 56 58 60 62 64 65 66 66 66 67 69 69 69 70 70 70 70 70 71 72 72 73 73 73 73 73 72 72 71 71 71 71 71 70 70 69 69 68 68 68 68
27 26 24 27 24 22 22 31 40 32 28 39 36 37 41 37 48 49 49 49 50 51 51 43 40 39 37 36 45 53 58 61 63 64 65 63 57 57 60 62 61 62 62 61 60 61 63 64 66 67 68 68 68 68 68 69 70 70 71 71 70 70 70 70 71 72 73 73 73 73 73 73 72 72 71 71 71 71 70 70 70 69 69 68 68 68
26 25 24 26 25 25 34 34 30 32 44 39 39 38 41 40 38 48 48 49 50 50 51 48 42 39 42 48 56 62 63 64 64 64 64 65 65 65 65 65 66 68 69 69 67 68 69 69 69 69 69 70 70 69 69 69 70 71 71 71 71 71 70 71 71 71 72 73 73 73 73 73 72 72 72 71 71 70 70 70 70 70 69 69 68 68
26 26 25 22 27 27 26 29 33 43 40 38 39 38 38 39 40 47 46 48 50 50 51 50 50 41 48 57 61 62 63 64 63 64 64 63 64 65 65 65 65 65 66 67 69 69 70 70 69 70 71 70 70 69 69 70 71 71 71 71 71 71 71 71 71 71 72 72 73 73 73 73 73 72 72 71 71 70 70 70 70 70 70 69 68 68
26 24 28 25 27 28 22 24 34 36 35 40 42 41 41 40 41 43 48 48 50 49 51 51 50 51 50 51 58 60 61 62 61 63 64 64 64 64 65 66 67 68 67 67 68 69 71 71 71 70 67 67 69 71 71 70 71 71 71 71 71 71 71 71 71 71 72 72 73 73 73 73 73 73 72 72 71 71 70 70 70 70 70 69 69 68
24 25 28 26 24 22 22 24 25 29 38 44 42 41 41 41 44 44 47 47 49 49 51 51 51 51 52 53 54 57 59 59 60 63 65 64 64 64 63 64 65 66 67 68 68 69 70 72 73 73 73 72 72 72 70 71 70 70 70 71 70 70 70 71 71 71 71 72 73 73 73 73 73 73 73 72 72 71 71 70 70 70 71 70 69 69
25 27 27 25 23 24 25 24 26 38 35 43 43 41 41 44 46 45 42 45 49 49 50 51 52 53 53 53 55 56 58 58 60 63 65 64 64 64 64 64 64 65 66 68 68 68 70 71 71 71 71 72 72 73 73 71 72 71 70 70 70 70 70 70 71 71 71 72 73 73 73 73 74 73 73 73 72 72 72 72 71 71 71 70 70 69
27 29 27 23 21 24 26 26 32 37 45 45 45 43 43 46 48 43 40 48 49 49 49 49 52 54 55 55 55 55 56 59 62 64 64 64 64 64 65 65 66 66 66 67 69 71 69 70 71 71 71 71 71 72 74 74 73 71 73 71 70 69 70 71 71 71 71 73 74 74 74 74 74 73 73 73 73 73 73 72 72 71 71 71 71 70
27 28 30 26 21 21 22 21 23 38 44 47 47 46 45 47 43 43 51 51 50 47 48 48 51 54 55 56 57 57 58 59 61 62 63 64 64 64 65 66 67 67 68 69 71 71 69 69 70 69 71 72 72 72 73 73 72 72 71 71 71 71 71 70 71 72 71 72 74 74 74 74 74 74 74 74 74 73 73 73 73 72 72 72 72 71
33 25 25 24 24 26 30 22 29 30 39 43 48 50 47 46 48 50 55 52 47 47 47 47 49 52 55 56 57 58 58 59 60 60 61 63 64 64 65 66 67 67 68 69 69 70 70 69 70 70 70 72 71 72 73 73 72 71 71 70 72 73 73 71 71 72 71 72 73 74 75 75 75 74 75 74 74 74 74 74 74 73 73 73 72 72
35 31 34 32 32 26 25 26 35 42 37 45 47 45 50 52 55 54 53 53 49 47 47 47 48 50 52 55 57 57 57 58 59 60 61 62 63 65 66 67 67 68 69 69 70 70 70 70 70 71 71 71 72 72 73 73 73 73 72 72 73 73 74 73 71 72 72 72 73 74 75 75 75 75 75 75 75 74 74 74 74 74 74 74 73 73
36 38 39 33 38 34 34 35 40 36 36 45 47 50 52 52 51 52 54 54 54 51 51 47 47 48 49 51 54 56 57 58 58 59 60 61 63 64 65 66 67 68 69 69 70 71 70 70 70 70 70 70 71 71 72 73 72 72 72 72 74 74 74 74 72 72 71 71 72 74 74 75 75 76 76 76 75 75 75 75 75 75 75 74 74 74
33 36 40 40 37 39 36 40 40 42 37 45 46 44 51 53 54 54 52 54 54 55 54 51 47 48 47 48 50 53 55 56 58 58 59 60 62 64 65 65 67 68 68 69 69 70 69 69 70 70 70 69 70 71 73 72 72 72 73 74 75 75 74 74 73 72 71 71 72 73 74 75 75 76 76 76 76 75 75 75 75 75 75 75 74 74
31 34 31 29 36 31 29 35 32 33 35 37 42 49 50 48 53 55 55 54 52 53 54 54 50 48 47 47 48 51 53 54 56 58 59 60 61 63 64 64 65 67 67 68 69 70 69 69 69 69 69 69 69 70 71 71 72 72 74 75 76 76 74 74 74 73 72 72 72 74 74 74 75 76 76 76 76 76 76 76 76 75 74 75 75 74
30 35 30 34 33 32 33 32 32 35 43 39 39 42 47 50 50 52 53 53 52 48 50 54 54 49 48 47 48 50 51 52 54 56 59 60 61 62 63 64 65 66 67 68 68 69 68 68 68 68 68 68 68 69 70 70 70 71 73 73 75 76 75 74 73 73 72 72 73 74 75 75 78 76 75 76 76 76 75 76 76 75 75 75 75 74
32 35 28 30 30 32 31 34 37 34 42 37 39 40 47 48 46 50 50 48 50 52 49 48 53 53 48 48 50 50 51 52 53 55 58 60 61 61 61 63 64 65 66 67 68 69 68 68 68 67 67 67 68 68 68 69 70 71 71 72 74 75 74 74 74 73 73 73 73 74 75 75 76 75 70 62 56 53 52 51 52 65 72 65 67 75
32 29 31 31 30 29 29 32 35 33 33 34 40 39 40 43 43 49 49 49 47 49 53 52 53 51 50 49 50 52 53 54 54 55 58 60 60 60 61 62 63 64 65 66 67 67 67 68 68 67 67 67 67 68 68 68 69 71 71 72 74 74 73 73 73 72 73 74 74 74 74 75 75 71 67 63 60 58 57 54 47 48 56 60 57 55
31 32 32 31 31 30 33 34 36 38 37 37 38 38 38 39 40 42 44 50 50 51 52 52 49 48 49 50 51 52 53 55 56 57 58 59 59 60 61 62 63 63 64 66 67 67 67 67 68 68 67 67 67 68 68 68 69 70 70 72 73 74 73 72 72 72 72 73 73 73 74 73 71 68 65 63 61 61 61 60 57 48 46 50 51 48